Theta_e
306 309 314 320 321 316 318 316 318 319 319 319 316 316 318 317 320 325 318 313 313 319 322 328 337 341 343 343 342 342 340 338 338 336 339 340 340 340 336 335 337 340 342 344 343 342 340 340 338
305 311 316 318 315 316 316 315 317 316 317 314 312 313 315 317 318 318 315 309 308 314 317 320 333 337 341 342 342 342 341 339 339 337 336 340 340 340 338 335 337 337 341 343 342 341 339 336 335
305 310 315 315 313 311 312 312 313 312 310 310 310 310 312 316 315 311 306 305 305 307 312 313 318 328 337 340 340 341 340 338 338 339 336 338 341 342 340 337 337 338 340 342 342 340 338 334 332
306 310 308 309 312 312 311 310 311 310 309 308 307 308 311 307 307 304 304 305 305 304 307 308 304 315 326 337 338 341 339 338 338 337 338 337 339 340 341 339 337 335 336 340 339 339 336 332 329
306 308 309 309 310 309 308 309 308 306 307 307 306 306 307 306 304 303 303 304 304 304 304 306 303 302 308 319 335 337 340 339 338 337 337 339 337 337 339 339 337 335 337 338 337 338 335 332 329
306 307 308 311 310 308 307 306 305 305 305 305 305 305 306 304 302 301 302 303 304 304 304 304 304 301 301 304 315 327 337 339 338 337 337 336 337 337 338 338 337 335 336 337 336 335 332 330 328
307 308 310 309 309 308 306 304 304 305 305 306 304 304 306 307 301 301 302 303 303 304 304 304 304 304 301 301 304 308 324 336 338 337 336 337 337 337 337 338 338 336 335 336 337 335 332 331 327
306 307 309 309 309 308 304 304 304 304 305 304 304 305 306 302 299 300 301 302 303 303 303 303 303 303 303 301 301 303 305 320 332 336 336 335 336 337 336 337 338 337 336 336 336 335 332 331 329
304 308 309 309 307 307 303 304 305 304 303 304 304 304 303 300 299 300 301 302 302 302 302 301 302 302 303 301 302 302 303 306 312 325 333 336 336 337 337 337 337 338 337 336 335 334 332 331 329
307 309 309 305 305 304 304 304 304 303 304 304 304 304 303 300 300 300 300 300 301 300 300 301 301 302 303 303 302 302 302 304 306 314 329 331 335 336 337 338 337 336 337 336 334 333 331 331 332
306 308 305 304 303 303 303 302 303 303 303 303 303 302 300 298 299 299 299 299 299 299 300 300 300 301 302 303 302 301 302 303 308 306 309 327 330 335 336 337 336 336 336 335 333 331 331 331 330
305 304 303 303 302 301 301 302 302 302 303 300 299 298 298 299 298 298 298 297 297 297 298 299 299 300 302 303 302 300 302 303 306 310 306 314 328 332 334 335 336 336 336 334 333 331 331 331 329
304 304 302 302 301 301 302 302 302 302 302 299 297 297 297 297 296 296 295 295 296 296 296 297 299 299 301 302 303 301 302 302 305 308 310 302 313 327 331 333 333 333 333 333 328 327 328 330 330
303 303 303 302 302 302 301 301 301 301 298 297 297 297 297 296 295 294 294 294 294 294 294 296 297 299 300 302 302 301 301 305 306 305 308 304 303 311 326 331 332 329 331 330 327 326 324 327 329
302 304 304 302 301 301 300 300 300 301 297 298 298 297 296 295 294 293 292 292 292 292 293 294 296 298 300 301 301 300 303 305 305 308 305 304 303 309 314 326 331 331 332 330 328 324 324 326 326
303 303 308 306 302 301 299 303 302 299 297 298 297 296 295 295 293 292 291 290 291 291 292 293 294 297 299 302 303 304 304 307 307 306 305 307 302 307 310 319 327 331 331 331 327 326 326 328 328
306 308 307 307 301 300 300 302 300 299 297 297 297 295 295 294 293 291 289 289 290 290 290 291 293 294 297 299 301 304 305 306 307 306 307 305 304 306 307 310 324 328 330 330 329 326 326 329 328
307 306 306 307 305 303 302 303 302 301 299 297 296 295 293 292 292 289 288 288 288 289 289 290 291 293 296 297 298 303 306 306 306 306 307 302 304 303 308 309 316 326 328 329 329 327 326 327 328
303 305 306 307 302 300 302 301 301 300 299 297 296 294 292 291 289 288 288 287 287 288 289 289 290 291 294 296 297 299 303 306 306 307 306 307 308 309 310 311 311 320 327 328 326 326 326 327 325
304 305 307 305 301 301 301 301 301 300 299 298 295 292 291 289 288 288 287 287 286 287 288 288 289 290 293 295 295 296 298 301 308 308 308 307 310 313 313 315 313 314 325 327 327 327 327 327 323
305 306 306 303 301 301 300 303 302 298 297 294 292 291 290 288 287 287 287 286 286 286 286 287 287 289 291 293 294 295 298 303 307 308 309 310 311 310 311 313 316 315 320 324 326 327 326 326 322
306 302 300 301 301 307 299 307 303 298 297 294 293 291 289 288 287 286 286 285 285 285 286 287 287 287 289 290 293 294 296 300 306 308 309 309 307 305 306 309 312 315 320 323 324 325 325 325 325
306 300 300 299 300 300 302 302 304 297 297 296 293 290 288 286 286 286 285 284 284 285 285 286 286 286 287 289 290 292 294 298 301 303 305 305 302 302 306 308 310 312 315 322 324 325 326 325 325
299 301 301 299 301 305 304 301 305 301 297 294 292 288 286 285 285 285 284 284 284 284 285 285 285 285 285 287 288 289 291 294 298 301 301 300 297 298 303 304 307 308 313 319 322 324 324 325 325
302 307 316 316 315 316 300 300 303 296 292 291 288 285 284 285 285 285 284 284 284 284 284 284 284 284 284 285 286 287 288 290 293 294 295 294 293 294 298 299 302 304 308 311 314 316 319 321 321
299 303 310 313 314 310 300 302 305 292 290 289 287 284 286 285 284 284 283 283 283 283 283 284 283 283 283 284 284 285 286 287 288 289 290 289 289 289 291 294 296 299 301 302 302 303 304 306 304
302 305 298 302 299 300 305 303 295 291 292 292 288 285 286 284 284 283 282 282 282 281 282 283 282 282 282 282 283 282 283 283 284 285 286 285 285 287 288 290 292 294 295 295 296 294 292 293 295
298 298 304 302 310 311 310 308 307 296 293 290 287 285 284 284 283 282 282 281 280 280 281 282 281 281 280 281 281 281 280 281 281 283 282 282 283 285 286 287 288 289 290 289 290 288 287 286 285
299 301 299 300 301 309 309 312 296 292 289 287 285 285 283 283 282 281 280 280 279 280 280 281 280 280 280 280 280 279 279 279 280 280 281 281 282 282 283 283 284 285 286 286 286 283 286 282 282
296 302 302 307 305 302 301 303 292 289 286 285 285 284 282 282 281 280 279 279 279 279 280 280 280 279 279 279 279 278 278 278 278 279 279 280 280 280 281 282 282 282 283 285 287 286 282 283 281
Wind_Speed
9 4 2 6 5 5 10 2 3 4 2 3 2 5 7 8 6 4 7 17 20 19 20 20 20 15 13 13 15 15 18 19 19 18 18 20 20 21 23 24 24 23 20 18 17 18 18 17 17
5 3 5 2 5 9 7 3 4 2 6 6 7 7 10 9 4 4 10 22 19 17 19 21 21 18 15 13 16 17 18 20 20 20 21 21 23 23 25 25 25 23 21 19 18 16 15 17 17
4 3 3 4 5 8 6 7 5 2 3 4 4 3 6 4 8 7 13 17 18 17 18 21 22 21 15 13 9 17 18 20 22 22 23 23 24 24 27 26 24 24 21 19 18 16 15 17 16
3 5 3 6 11 8 3 2 3 7 5 1 3 10 4 6 3 10 15 16 16 16 17 19 22 21 20 12 9 5 16 18 20 23 24 25 25 25 27 27 26 25 22 20 18 18 16 16 15
5 3 6 6 8 5 4 4 5 9 8 5 3 6 8 8 6 13 18 18 17 16 16 16 21 21 20 19 10 13 9 13 18 21 23 25 26 27 27 28 27 26 24 21 20 21 17 17 17
4 4 6 8 2 3 4 3 8 9 8 8 8 11 9 13 14 19 20 18 18 17 16 15 19 20 20 18 16 11 11 12 14 18 21 23 26 28 28 29 27 27 26 24 22 21 18 17 18
8 5 6 7 7 5 1 2 4 7 9 5 5 7 5 9 19 22 22 20 18 17 17 16 18 20 19 18 16 16 11 9 14 16 20 19 22 26 28 29 28 28 28 25 24 21 18 16 17
4 3 4 3 6 4 3 3 2 7 9 6 2 5 6 18 25 26 22 20 18 17 18 18 19 18 20 18 16 16 14 9 6 11 16 20 21 22 25 28 29 29 30 27 25 22 20 17 17
2 5 6 5 4 2 2 4 5 5 12 14 12 13 9 13 19 20 22 21 20 17 18 21 18 20 19 19 15 14 14 11 8 7 8 17 17 18 22 25 29 30 30 27 24 22 20 18 17
4 4 4 4 4 6 8 10 11 9 14 17 18 14 10 18 18 17 17 20 21 22 22 19 20 20 20 18 17 14 13 11 10 6 7 8 14 15 16 18 25 28 30 26 23 22 20 19 15
1 3 4 1 4 6 9 13 14 16 18 17 10 11 14 19 19 18 17 18 21 24 22 21 22 20 19 18 18 16 13 12 9 7 6 6 10 9 20 16 17 23 27 27 27 24 22 22 19
4 3 4 2 2 5 12 13 14 15 17 6 7 10 13 16 15 19 21 21 22 24 24 23 21 23 20 18 19 19 18 14 11 8 6 3 6 6 8 14 17 16 24 25 27 23 20 20 20
6 3 3 7 8 12 11 15 16 16 14 4 7 10 11 13 18 20 21 23 22 23 25 24 22 22 23 20 18 18 19 18 14 10 8 6 4 5 5 4 7 12 21 16 7 11 13 19 21
3 9 10 5 6 9 10 15 15 11 2 6 8 10 11 13 17 22 21 22 23 24 23 25 24 22 22 23 20 20 20 18 17 12 10 8 9 5 4 5 10 14 22 24 25 25 24 20 21
4 7 7 4 1 5 8 17 12 4 3 7 10 10 11 12 16 19 21 23 23 25 25 24 24 22 21 23 22 20 18 16 17 14 12 9 9 8 6 6 9 15 25 28 25 28 30 24 18
4 3 8 5 2 1 4 12 9 4 5 11 11 10 11 12 15 18 20 23 23 23 24 24 23 23 21 20 20 20 17 16 17 16 12 11 9 9 10 8 12 14 21 27 29 27 25 27 32
6 8 12 8 6 3 5 15 3 4 10 12 11 10 11 12 14 18 20 22 23 22 22 22 21 21 21 19 18 20 19 16 16 13 11 18 7 10 12 14 13 15 16 22 26 26 26 21 23
9 8 7 14 3 11 18 25 21 17 9 12 11 10 11 13 14 19 21 22 23 22 20 19 18 19 19 16 17 16 17 16 16 14 12 11 13 13 14 16 15 13 15 17 25 25 25 24 20
8 10 16 17 7 10 12 21 20 15 14 12 11 9 12 14 16 18 19 21 21 21 18 18 18 17 17 12 13 13 14 13 11 10 8 9 10 11 15 11 13 15 17 20 22 24 22 19 22
11 15 17 6 5 16 16 21 15 14 12 10 6 9 12 14 14 17 18 20 20 21 18 17 17 16 15 10 11 11 17 17 11 6 7 8 8 10 9 11 13 15 18 19 22 27 19 21 34
12 12 12 13 19 11 11 12 5 1 4 6 8 7 11 12 14 14 17 19 20 19 18 17 16 16 14 11 9 11 13 15 13 11 8 7 3 6 8 11 10 17 18 19 21 26 25 17 27
6 3 9 15 11 5 5 6 6 6 7 8 7 9 12 12 12 13 16 18 21 19 18 17 16 16 12 10 5 7 11 15 10 5 1 1 3 6 9 12 16 19 14 20 23 23 25 24 19
7 13 14 9 3 9 6 3 3 4 8 8 4 11 12 12 12 13 14 18 20 19 18 17 15 14 14 9 4 5 9 12 11 7 5 4 4 7 9 10 13 14 25 19 21 24 26 27 25
11 10 4 1 2 3 6 2 6 3 1 1 6 12 13 13 13 12 16 17 19 19 18 17 15 14 13 9 6 6 7 9 9 6 3 4 6 8 8 9 9 11 16 17 20 24 24 25 22
7 8 4 3 2 3 6 6 8 4 2 3 9 12 12 11 12 12 13 17 19 20 19 17 16 14 13 10 9 7 6 6 6 5 3 3 3 5 5 5 5 6 7 8 12 16 22 24 25
3 4 2 7 6 10 8 6 0 3 2 5 5 9 10 11 11 12 12 16 18 20 18 17 16 13 12 10 10 7 5 3 3 4 3 2 1 1 2 1 4 6 6 9 10 12 11 14 13
2 2 2 3 2 4 4 5 5 3 4 9 8 11 10 10 10 11 13 15 17 18 19 17 17 14 13 12 9 7 7 5 4 4 4 3 4 6 7 7 9 11 11 12 15 18 17 17 18
3 6 2 3 5 7 5 6 7 2 9 13 10 10 10 11 10 10 12 16 18 18 17 15 14 14 14 12 9 8 8 7 7 9 9 9 11 12 12 13 16 17 17 17 21 24 25 24 22
3 3 2 1 2 4 7 5 3 2 7 12 11 10 10 11 10 10 13 16 15 15 14 13 13 14 14 12 11 11 11 13 13 14 14 16 17 18 20 21 24 25 26 27 30 34 35 34 32
1 3 4 3 4 4 3 8 6 3 5 8 10 10 9 9 9 9 12 14 16 16 15 14 16 16 15 14 15 16 16 17 18 19 20 20 24 25 27 30 33 35 36 37 39 39 35 40 36
Wind_Direction
348 302 244 222 235 237 267 263 21 238 219 64 327 268 324 325 306 347 29 5 356 352 351 351 342 332 315 268 240 234 224 222 217 212 203 199 197 195 190 188 185 181 174 173 167 165 174 175 178
336 297 223 226 248 239 268 236 219 342 14 316 276 259 249 271 40 351 343 353 352 352 353 352 348 338 320 310 246 233 229 222 219 217 212 204 203 201 195 195 192 190 181 174 171 171 177 183 187
307 252 237 230 243 250 298 30 15 82 347 338 299 319 322 13 59 14 358 348 348 352 355 353 355 355 335 329 276 247 239 225 221 219 220 211 211 206 202 198 199 193 187 180 176 176 179 189 189
214 206 228 246 244 256 287 341 345 295 279 152 356 278 132 63 30 4 344 346 348 346 350 353 357 359 355 322 302 298 250 242 231 224 224 219 217 213 210 204 202 202 199 185 182 183 187 189 188
218 256 239 242 262 267 296 302 296 283 289 268 337 270 267 101 50 357 345 339 339 340 343 346 349 357 357 353 319 278 258 240 242 234 228 226 223 222 216 213 209 205 202 191 189 186 189 192 187
203 283 235 255 319 184 247 312 289 274 287 308 294 309 280 94 23 353 344 337 333 332 339 339 343 347 350 351 348 342 256 245 237 238 236 233 230 225 224 220 215 208 204 198 194 193 194 193 194
266 236 285 293 288 281 172 343 275 317 294 307 330 273 281 182 357 341 335 332 327 329 333 336 338 337 340 345 345 340 328 245 238 239 233 233 236 234 229 224 220 213 208 205 199 197 196 196 195
272 266 250 230 323 308 93 301 327 293 302 349 306 262 302 353 341 335 328 322 320 326 327 332 333 335 332 332 340 340 335 324 271 246 238 236 232 233 233 234 228 219 213 208 201 198 198 200 197
273 240 260 266 273 52 133 295 304 262 270 277 277 276 312 339 333 330 330 325 324 322 325 326 328 328 326 325 322 330 332 333 337 321 283 240 241 239 235 232 234 226 217 210 204 200 201 204 202
248 261 358 29 336 289 303 286 300 290 282 281 281 278 330 329 324 326 329 327 326 327 325 324 322 322 321 319 311 308 324 321 309 336 332 274 245 240 237 235 237 229 213 206 204 203 203 201 197
196 292 40 315 297 303 293 289 282 276 274 281 305 307 316 318 319 318 318 316 316 318 320 321 319 316 313 310 306 300 295 306 304 293 297 295 266 257 242 240 241 227 219 209 201 196 200 198 196
267 256 273 339 283 286 287 295 279 270 276 349 312 315 309 313 314 316 315 314 310 311 312 317 317 313 308 303 299 293 286 282 292 276 275 318 297 273 258 242 244 228 218 211 194 187 191 195 196
249 300 286 293 277 283 291 277 273 279 275 237 288 291 297 305 309 310 311 307 310 308 308 308 313 311 306 300 292 290 283 277 264 266 272 272 280 285 265 257 219 219 232 183 155 174 210 196 201
340 297 295 298 284 280 284 284 282 266 64 247 256 278 294 303 309 311 313 312 308 306 306 307 306 308 304 298 290 285 277 273 257 255 264 271 269 267 299 255 219 198 218 205 207 217 200 223 204
300 296 261 205 291 306 330 279 231 222 187 259 270 295 304 312 315 314 314 311 309 306 305 304 306 306 305 298 290 285 272 260 254 249 250 255 262 256 235 244 246 222 210 216 212 192 192 201 219
258 255 330 152 209 94 343 283 322 126 259 277 294 298 309 315 319 315 317 311 308 305 304 303 304 304 306 300 293 285 267 254 240 242 238 247 253 261 263 233 240 223 217 209 205 199 204 198 207
215 307 310 325 165 237 230 288 296 234 262 281 284 297 306 316 321 322 316 311 311 308 304 302 303 303 302 309 300 286 269 240 239 235 246 244 236 262 265 259 236 234 216 211 199 197 203 204 206
297 306 296 304 276 278 290 276 276 276 271 265 281 291 314 324 327 322 317 315 313 307 302 302 305 305 302 309 313 294 264 243 224 224 226 251 254 246 240 246 247 239 230 224 204 196 201 210 199
288 280 286 297 8 311 276 284 282 281 266 249 259 295 314 322 324 318 318 318 316 308 306 310 311 306 307 312 323 319 320 253 229 220 215 232 241 228 244 244 252 247 241 220 221 201 195 197 178
275 283 295 317 189 323 296 288 286 276 252 247 276 299 320 320 321 320 320 318 316 312 311 313 312 308 306 305 310 304 298 290 292 238 235 231 233 244 246 254 248 248 244 223 205 203 196 201 183
280 277 303 298 319 278 306 272 200 249 190 202 238 327 323 319 317 318 320 320 318 315 316 317 317 311 308 308 310 310 312 267 252 236 224 219 219 275 271 250 260 246 242 237 221 214 207 200 189
290 37 306 307 327 307 19 296 231 172 212 214 242 335 325 318 318 318 320 321 317 316 318 321 321 317 315 316 319 323 311 299 306 310 286 243 305 292 270 258 250 249 258 234 232 226 213 198 194
260 325 301 314 271 320 150 254 222 171 238 227 268 330 326 324 315 318 320 320 316 320 323 326 324 321 318 319 351 344 316 305 297 283 279 251 319 296 289 282 272 256 249 261 232 215 208 206 199
297 301 301 166 311 264 162 246 275 166 355 264 315 329 327 316 316 319 322 325 322 324 330 331 328 325 328 335 9 8 321 308 304 302 330 314 320 319 304 288 270 256 243 250 235 232 220 209 204
328 297 313 278 234 307 166 254 292 106 108 308 313 317 311 308 317 323 328 329 328 330 334 334 332 330 336 349 22 10 326 313 307 326 4 349 325 312 315 295 258 243 229 227 221 204 200 204 206
12 304 33 299 313 308 196 245 358 106 158 285 279 297 298 315 317 323 327 328 328 330 333 335 335 336 347 9 23 13 356 346 331 4 41 45 51 33 42 96 162 149 172 171 173 165 153 169 159
87 241 50 274 117 275 235 243 134 166 228 329 324 310 310 313 313 322 328 334 334 334 336 338 341 346 1 16 22 22 28 35 43 57 73 65 89 90 102 118 125 120 130 142 133 123 115 125 130
280 140 214 148 310 302 304 296 275 226 328 317 321 311 311 310 320 331 337 342 341 336 338 345 351 358 8 20 30 39 47 58 76 90 84 96 104 107 110 113 108 114 116 120 119 108 105 109 98
156 216 195 295 232 298 311 312 95 179 318 305 307 308 306 315 331 341 350 341 332 335 342 354 4 13 22 28 36 51 59 73 88 93 98 100 105 106 105 103 106 106 105 103 104 97 102 95 90
293 277 228 237 158 231 280 275 125 184 298 291 300 303 308 323 343 354 344 341 339 343 351 2 13 27 36 43 49 56 71 84 88 89 93 97 91 95 95 98 97 96 98 101 100 98 98 97 84